Fryeburg, ME

4:09 PM EDT on September 19, 2017 (GMT -0400)
Eastern Slopes Regional

Weather History for KIZG - September, 2014

Change the Weather History Date:

Friday, September 19, 2014

  Actual Average Record
Temperature  
Mean Temperature 42 °F -  
Max Temperature 59 °F 69 °F 82 °F (2002)
Min Temperature 28 °F 43 °F 28 °F (2014)
Degree Days  
Heating Degree Days 22    
Moisture  
Dew Point 28 °F    
Average Humidity 77    
Maximum Humidity 96    
Minimum Humidity 22    
Precipitation  
Precipitation 0.00 in - - ()
Sea Level Pressure  
Sea Level Pressure 30.31 in    
Wind  
Wind Speed 2 mph (West)    
Max Wind Speed 7 mph    
Max Gust Speed -    
Visibility 5 miles    
Events Fog    
Averages and records for this station are not official NWS values.
T = Trace of Precipitation, MM = Missing Value Source: NWS Daily Summary

Daily Weather History Graph

Daily Weather History Graph

Search for Another Location

Airport or City:

Trip Planner

Search our weather history database for the weather conditions in past years. The results will help you decide how hot, cold, wet, or windy it might be!

Date:

Astronomy

Sep. 19, 2014 Rise Set
Actual Time 6:27 AM EDT 6:46 PM EDT
Civil Twilight 5:58 AM EDT 7:15 PM EDT
Nautical Twilight 5:24 AM EDT 7:49 PM EDT
Astronomical Twilight 4:49 AM EDT 8:24 PM EDT
Moon 2:02 AM EDT 4:19 PM EDT
Length of Visible Light 13h 17m
Length of Day
12h 19m
Waning Crescent, 18% of the Moon is Illuminated
Sep 19
Waning Crescent
Sep 24
New
Oct 1
First Quarter
Oct 8
Full
Oct 15
Last Quarter

Hourly Weather History & Observations

Time (EDT) Temp. Windchill Dew Point Humidity Pressure Visibility Wind Dir Wind Speed Gust Speed Precip Events Conditions
12:54 AM 35.1 °F - 33.1 °F 92% 30.21 in 9.0 mi Calm Calm - N/A   Clear
1:45 AM 32.0 °F - 30.9 °F 96% 30.22 in 1.0 mi Calm Calm - N/A   Mist
1:52 AM 32.0 °F - 30.2 °F 93% 30.22 in 0.5 mi Calm Calm - N/A Fog Fog
1:54 AM 32.0 °F - 30.9 °F 96% 30.24 in 0.5 mi Calm Calm - N/A Fog Fog
2:05 AM 30.9 °F - 28.9 °F 92% 30.23 in 0.2 mi Calm Calm - N/A Fog Light Freezing Fog
2:13 AM 30.9 °F 27.5 °F 30.0 °F 96% 30.23 in 0.8 mi WNW 3.5 mph - N/A   Mist
2:17 AM 30.0 °F 26.5 °F 28.9 °F 96% 30.23 in 1.2 mi WNW 3.5 mph - N/A   Partly Cloudy
2:21 AM 30.9 °F 26.2 °F 28.9 °F 92% 30.23 in 2.0 mi WNW 4.6 mph - N/A   Partly Cloudy
2:33 AM 30.9 °F 26.2 °F 30.0 °F 96% 30.24 in 1.2 mi NW 4.6 mph - N/A   Clear
2:43 AM 30.9 °F - 28.9 °F 92% 30.24 in 2.0 mi Calm Calm - N/A   Clear
2:45 AM 30.9 °F 27.5 °F 28.9 °F 92% 30.24 in 1.2 mi WNW 3.5 mph - N/A   Clear
2:48 AM 30.2 °F - 28.4 °F 93% 30.25 in 0.8 mi Calm Calm - N/A   Mist
2:54 AM 30.0 °F - 28.9 °F 96% 30.26 in 0.2 mi Calm Calm - N/A Fog Light Freezing Fog
3:10 AM 30.0 °F - 28.9 °F 96% 30.26 in 1.0 mi Calm Calm - N/A   Mist
3:19 AM 30.0 °F 25.2 °F 28.9 °F 96% 30.26 in 1.5 mi NW 4.6 mph - N/A   Scattered Clouds
3:21 AM 30.0 °F 25.2 °F 28.9 °F 96% 30.26 in 3.0 mi NW 4.6 mph - N/A   Partly Cloudy
3:30 AM 30.0 °F 26.5 °F 28.0 °F 92% 30.26 in 1.8 mi WNW 3.5 mph - N/A   Partly Cloudy
3:41 AM 30.0 °F 26.5 °F 28.0 °F 92% 30.26 in 1.2 mi WNW 3.5 mph - N/A   Clear
3:46 AM 30.0 °F - 28.0 °F 92% 30.27 in 2.5 mi Calm Calm - N/A   Clear
3:54 AM 30.0 °F 26.5 °F 28.0 °F 92% 30.28 in 10.0 mi WNW 3.5 mph - N/A   Clear
4:30 AM 28.9 °F 25.2 °F 27.0 °F 92% 30.29 in 4.0 mi WNW 3.5 mph - N/A   Partly Cloudy
4:54 AM 28.9 °F - 27.0 °F 92% 30.31 in 10.0 mi Calm Calm - N/A   Partly Cloudy
5:04 AM 28.9 °F 25.2 °F 27.0 °F 92% 30.30 in 1.8 mi SW 3.5 mph - N/A   Partly Cloudy
5:14 AM 28.0 °F - 26.1 °F 92% 30.31 in 1.5 mi Calm Calm - N/A   Partly Cloudy
5:25 AM 28.0 °F 24.2 °F 27.0 °F 96% 30.31 in 1.0 mi Variable 3.5 mph - N/A   Mist
5:37 AM 28.0 °F - 26.1 °F 92% 30.32 in 1.8 mi Calm Calm - N/A   Partly Cloudy
5:39 AM 28.0 °F - 26.1 °F 92% 30.32 in 3.0 mi Calm Calm - N/A   Partly Cloudy
5:54 AM 28.0 °F 24.2 °F 26.1 °F 92% 30.34 in 9.0 mi West 3.5 mph - N/A   Partly Cloudy
6:54 AM 28.9 °F - 27.0 °F 92% 30.37 in 5.0 mi Calm Calm - N/A   Clear
7:54 AM 39.9 °F 36.7 °F 30.9 °F 70% 30.38 in 10.0 mi Variable 4.6 mph - N/A   Clear
9:54 AM 48.9 °F - 25.0 °F 39% 30.40 in 10.0 mi NNE 6.9 mph - N/A   Clear
10:54 AM 53.1 °F - 21.9 °F 30% 30.40 in 10.0 mi Variable 3.5 mph - N/A   Clear
11:54 AM 54.0 °F - 19.9 °F 26% 30.40 in 10.0 mi Variable 4.6 mph - N/A   Clear
12:54 PM 55.0 °F - 19.0 °F 24% 30.41 in 10.0 mi North - - N/A   Clear
1:54 PM 57.9 °F - 19.0 °F 22% 30.41 in 10.0 mi Variable 4.6 mph - N/A   Clear
2:54 PM 57.0 °F - 19.0 °F 23% 30.39 in 10.0 mi Variable 3.5 mph - N/A   Clear
3:54 PM 57.9 °F - 21.0 °F 24% 30.39 in 10.0 mi Variable 4.6 mph - N/A   Clear
4:54 PM 57.0 °F - 23.0 °F 27% 30.38 in 10.0 mi SE 5.8 mph - N/A   Clear
5:54 PM 53.1 °F - 28.0 °F 38% 30.38 in 10.0 mi South 3.5 mph - N/A   Clear
6:54 PM 42.1 °F 39.2 °F 34.0 °F 73% 30.39 in 10.0 mi South 4.6 mph - N/A   Clear
7:54 PM 41.0 °F 39.0 °F 33.1 °F 73% 30.41 in 10.0 mi South 3.5 mph - N/A   Clear
8:54 PM 45.0 °F 41.2 °F 34.0 °F 65% 30.41 in 10.0 mi South 6.9 mph - N/A   Clear
10:54 PM 37.9 °F - 34.0 °F 86% 30.41 in 10.0 mi Calm Calm - N/A   Clear
11:54 PM 41.0 °F 38.0 °F 32.0 °F 70% 30.40 in 10.0 mi SW 4.6 mph - N/A   Clear